THY5PW LUKK-LTBS

Flight info

Callsign THY5PW
Flight time N/A
Altitude 35000
Route LIPTA T34 KODRU DCT RIPGA DCT PILAT DCT CND DCT DINRO L620 RIXEN UG1 IST UN616 TUMER DCT LAVTA T44 ATSAL
Aircraft B739/M-SDE2E3FGHIRWXY/LB1

Departure

Time N/A
Airport Chişinău International Airport (LUKK)

Arrival

Time 2026-05-01 12:07
Airport Dalaman International Airport (LTBS)
Time Latitude Longitude Altitude Speed Heading
2026-05-01 10:49 45.00618 28.19089 35280 ft 468 kts 165°
2026-05-01 10:50 44.97476 28.20357 35272 ft 471 kts 165°
2026-05-01 10:50 44.91153 28.22904 35269 ft 475 kts 165°
2026-05-01 10:51 44.84788 28.25463 35265 ft 474 kts 165°
2026-05-01 10:51 44.78461 28.28002 35263 ft 473 kts 165°
2026-05-01 10:52 44.72130 28.30535 35251 ft 474 kts 165°
2026-05-01 10:52 44.65774 28.33073 35263 ft 473 kts 166°
2026-05-01 10:53 44.59456 28.35589 35265 ft 473 kts 166°
2026-05-01 10:53 44.53153 28.38095 35268 ft 473 kts 166°
2026-05-01 10:54 44.46835 28.40601 35272 ft 472 kts 166°
2026-05-01 10:54 44.40561 28.43084 35270 ft 469 kts 166°
2026-05-01 10:55 44.34243 28.45579 35277 ft 473 kts 166°
2026-05-01 10:55 44.27968 28.48100 35275 ft 472 kts 164°
2026-05-01 10:56 44.21801 28.51295 35269 ft 473 kts 159°
2026-05-01 10:56 44.15723 28.54856 35267 ft 473 kts 159°
2026-05-01 10:57 44.09683 28.58414 35268 ft 473 kts 159°
2026-05-01 10:57 44.03618 28.61914 35270 ft 471 kts 159°
2026-05-01 10:58 43.97583 28.65344 35268 ft 470 kts 160°
2026-05-01 10:58 43.91526 28.68759 35271 ft 471 kts 161°
2026-05-01 10:59 43.85446 28.72174 35273 ft 472 kts 161°
2026-05-01 10:59 43.79389 28.75567 35269 ft 470 kts 161°
2026-05-01 11:00 43.73295 28.78888 35261 ft 469 kts 163°
2026-05-01 11:00 43.67012 28.80809 35257 ft 461 kts 179°
2026-05-01 11:01 43.60646 28.80967 35251 ft 458 kts 185°
2026-05-01 11:01 43.54274 28.80696 35254 ft 458 kts 185°
2026-05-01 11:02 43.47905 28.80404 35250 ft 458 kts 185°
2026-05-01 11:02 43.41573 28.80163 35253 ft 457 kts 185°
2026-05-01 11:03 43.35231 28.79967 35248 ft 456 kts 185°
2026-05-01 11:03 43.28902 28.79790 35255 ft 456 kts 185°
2026-05-01 11:04 43.22581 28.79623 35257 ft 454 kts 185°
2026-05-01 11:04 43.16245 28.79460 35255 ft 453 kts 185°
2026-05-01 11:05 43.09956 28.79297 35258 ft 454 kts 185°
2026-05-01 11:05 43.03657 28.79136 35256 ft 453 kts 185°
2026-05-01 11:06 42.97385 28.78970 35254 ft 454 kts 185°
2026-05-01 11:06 42.91097 28.78802 35259 ft 452 kts 185°
2026-05-01 11:07 42.81634 28.78548 35248 ft 452 kts 185°
2026-05-01 11:07 42.75368 28.78385 35249 ft 452 kts 185°
2026-05-01 11:08 42.69101 28.78219 35244 ft 449 kts 185°
2026-05-01 11:09 42.59707 28.77967 35244 ft 451 kts 185°
2026-05-01 11:09 42.53447 28.77801 35244 ft 451 kts 185°
2026-05-01 11:10 42.44052 28.77551 35239 ft 450 kts 185°
2026-05-01 11:10 42.37785 28.77386 35236 ft 450 kts 186°
2026-05-01 11:11 42.31579 28.77225 35234 ft 448 kts 186°
2026-05-01 11:11 42.25350 28.77064 35231 ft 447 kts 186°
2026-05-01 11:12 42.19165 28.76901 35227 ft 447 kts 185°
2026-05-01 11:12 42.12895 28.76734 35230 ft 448 kts 185°
2026-05-01 11:13 42.06679 28.76591 35225 ft 447 kts 185°
2026-05-01 11:13 42.00454 28.76750 35223 ft 450 kts 183°
2026-05-01 11:14 41.94221 28.77060 35224 ft 449 kts 182°
2026-05-01 11:14 41.87965 28.77363 35217 ft 448 kts 183°
2026-05-01 11:15 41.81800 28.77630 35215 ft 448 kts 183°
2026-05-01 11:15 41.75599 28.77884 35214 ft 447 kts 183°
2026-05-01 11:16 41.69345 28.78132 35210 ft 448 kts 184°
2026-05-01 11:16 41.63138 28.78373 35209 ft 447 kts 183°
2026-05-01 11:17 41.56937 28.78617 35211 ft 446 kts 184°
2026-05-01 11:17 41.50740 28.78858 35208 ft 447 kts 184°
2026-05-01 11:18 41.44542 28.79098 35205 ft 446 kts 184°
2026-05-01 11:18 41.38331 28.79339 35206 ft 446 kts 184°
2026-05-01 11:19 41.32150 28.79582 35203 ft 445 kts 184°
2026-05-01 11:19 41.25947 28.79822 35199 ft 445 kts 184°
2026-05-01 11:20 41.19735 28.80062 35194 ft 446 kts 184°
2026-05-01 11:20 41.13524 28.80323 35193 ft 447 kts 184°
2026-05-01 11:21 41.07329 28.80591 35194 ft 445 kts 184°
2026-05-01 11:21 41.01091 28.80857 35189 ft 447 kts 184°
2026-05-01 11:22 40.94894 28.81483 35183 ft 451 kts 177°
2026-05-01 11:22 40.88742 28.83055 35181 ft 454 kts 173°
2026-05-01 11:23 40.82772 28.84883 35183 ft 453 kts 173°
2026-05-01 11:23 40.76628 28.86783 35166 ft 453 kts 173°
2026-05-01 11:24 40.70487 28.88648 35174 ft 453 kts 173°
2026-05-01 11:25 40.61270 28.91394 35160 ft 454 kts 174°
2026-05-01 11:25 40.52060 28.94114 35135 ft 454 kts 174°
2026-05-01 11:26 40.42813 28.96830 35134 ft 455 kts 174°
2026-05-01 11:27 40.36647 28.98637 35131 ft 453 kts 174°
2026-05-01 11:27 40.30492 29.00435 35132 ft 454 kts 174°
2026-05-01 11:28 40.24355 29.02227 35135 ft 453 kts 174°
2026-05-01 11:28 40.18225 29.04017 35125 ft 452 kts 174°
2026-05-01 11:29 40.09025 29.06692 35101 ft 453 kts 174°
2026-05-01 11:30 39.99769 29.09371 35066 ft 455 kts 174°
2026-05-01 11:30 39.93613 29.11153 35047 ft 453 kts 175°
2026-05-01 11:31 39.87517 29.12913 35049 ft 455 kts 175°
2026-05-01 11:31 39.81393 29.14680 35048 ft 453 kts 175°
2026-05-01 11:32 39.75225 29.16461 35054 ft 454 kts 174°
2026-05-01 11:32 39.69070 29.18267 35052 ft 453 kts 174°
2026-05-01 11:33 39.62911 29.20075 35054 ft 456 kts 175°
2026-05-01 11:33 39.56760 29.21878 35060 ft 456 kts 174°
2026-05-01 11:34 39.50578 29.23683 35063 ft 456 kts 174°
2026-05-01 11:34 39.47459 29.24593 34928 ft 457 kts 174°
2026-05-01 11:34 39.44368 29.25493 35021 ft 458 kts 174°
2026-05-01 11:35 39.38106 29.27305 35060 ft 460 kts 174°
2026-05-01 11:35 39.31887 29.29058 35050 ft 459 kts 175°
2026-05-01 11:36 39.25642 29.30784 35035 ft 458 kts 175°
2026-05-01 11:36 39.19396 29.32502 35036 ft 460 kts 175°
2026-05-01 11:37 39.13160 29.34220 35030 ft 459 kts 175°
2026-05-01 11:37 39.06934 29.35937 35031 ft 460 kts 175°
2026-05-01 11:38 39.00609 29.37677 35028 ft 463 kts 175°
2026-05-01 11:38 38.94341 29.39403 35032 ft 462 kts 175°
2026-05-01 11:39 38.88125 29.41112 35033 ft 462 kts 175°
2026-05-01 11:39 38.81904 29.42818 35041 ft 462 kts 175°
2026-05-01 11:40 38.75617 29.44537 35042 ft 462 kts 175°
2026-05-01 11:40 38.69363 29.45524 35048 ft 449 kts 190°
2026-05-01 11:40 38.66280 29.44995 35041 ft 437 kts 201°
2026-05-01 11:41 38.63458 29.43817 35045 ft 427 kts 210°
2026-05-01 11:41 38.58235 29.40315 35016 ft 421 kts 217°
2026-05-01 11:41 38.55734 29.38321 34816 ft 421 kts 219°
2026-05-01 11:42 38.53312 29.36317 34605 ft 418 kts 220°
2026-05-01 11:42 38.50876 29.34279 34393 ft 417 kts 219°
2026-05-01 11:42 38.48465 29.32262 34180 ft 417 kts 220°
2026-05-01 11:42 38.46008 29.30216 33946 ft 418 kts 220°
2026-05-01 11:43 38.43599 29.28217 33710 ft 419 kts 219°
2026-05-01 11:43 38.41146 29.26193 33432 ft 420 kts 219°
2026-05-01 11:43 38.38666 29.24154 33128 ft 420 kts 219°
2026-05-01 11:44 38.33763 29.20139 32467 ft 421 kts 219°
2026-05-01 11:44 38.31291 29.18120 32137 ft 422 kts 219°
2026-05-01 11:44 38.28806 29.16093 31708 ft 425 kts 219°
2026-05-01 11:44 38.26329 29.14074 31235 ft 425 kts 219°
2026-05-01 11:45 38.23823 29.12038 30759 ft 424 kts 219°
2026-05-01 11:45 38.21336 29.10017 30264 ft 425 kts 219°
2026-05-01 11:45 38.18848 29.07992 29736 ft 426 kts 219°
2026-05-01 11:45 38.16346 29.05956 29201 ft 428 kts 218°
2026-05-01 11:46 38.13857 29.03934 28672 ft 430 kts 218°
2026-05-01 11:46 38.11330 29.01881 28143 ft 431 kts 218°
2026-05-01 11:46 38.08821 28.99847 27616 ft 433 kts 218°
2026-05-01 11:46 38.06244 28.97760 27081 ft 435 kts 218°
2026-05-01 11:47 38.03702 28.95706 26559 ft 437 kts 218°
2026-05-01 11:47 38.01136 28.93637 26002 ft 425 kts 217°
2026-05-01 11:47 37.98723 28.91704 25480 ft 406 kts 217°
2026-05-01 11:47 37.96379 28.89828 24943 ft 389 kts 218°
2026-05-01 11:48 37.94155 28.88042 24419 ft 375 kts 217°
2026-05-01 11:48 37.91969 28.86280 23943 ft 368 kts 218°
2026-05-01 11:48 37.89811 28.84534 23466 ft 368 kts 217°
2026-05-01 11:48 37.87658 28.82789 22999 ft 367 kts 217°
2026-05-01 11:49 37.85511 28.81053 22528 ft 364 kts 217°
2026-05-01 11:49 37.83384 28.79335 22058 ft 362 kts 217°
2026-05-01 11:49 37.81289 28.77647 21597 ft 360 kts 217°
2026-05-01 11:49 37.79182 28.75957 21103 ft 359 kts 217°
2026-05-01 11:50 37.77075 28.74271 20619 ft 355 kts 217°
2026-05-01 11:50 37.74935 28.72714 20139 ft 356 kts 210°
2026-05-01 11:50 37.72607 28.71646 19654 ft 360 kts 200°
2026-05-01 11:50 37.70149 28.71063 19165 ft 363 kts 192°
2026-05-01 11:51 37.67601 28.70883 18680 ft 365 kts 186°
2026-05-01 11:51 37.65076 28.70945 18199 ft 365 kts 183°
2026-05-01 11:51 37.62538 28.71105 17722 ft 364 kts 182°
2026-05-01 11:51 37.60027 28.71283 17251 ft 363 kts 182°
2026-05-01 11:52 37.57507 28.71450 17022 ft 358 kts 183°
2026-05-01 11:52 37.55027 28.71597 17011 ft 361 kts 183°
2026-05-01 11:52 37.52503 28.71674 17006 ft 361 kts 186°
2026-05-01 11:52 37.50017 28.71432 17000 ft 354 kts 195°
2026-05-01 11:53 37.47653 28.70693 16801 ft 353 kts 203°
2026-05-01 11:53 37.45354 28.69645 16509 ft 348 kts 206°
2026-05-01 11:53 37.43111 28.68483 16211 ft 345 kts 208°
2026-05-01 11:53 37.40920 28.67315 16034 ft 344 kts 207°
2026-05-01 11:54 37.38717 28.66155 16018 ft 347 kts 207°
2026-05-01 11:54 37.36462 28.64989 16010 ft 347 kts 207°
2026-05-01 11:54 37.34240 28.63858 16011 ft 341 kts 207°
2026-05-01 11:54 37.32053 28.62759 16016 ft 336 kts 207°
2026-05-01 11:55 37.29880 28.61667 15888 ft 338 kts 207°
2026-05-01 11:55 37.27694 28.60569 15630 ft 334 kts 206°
2026-05-01 11:55 37.25565 28.59516 15394 ft 327 kts 205°
2026-05-01 11:55 37.23449 28.58732 15187 ft 313 kts 195°
2026-05-01 11:56 37.21300 28.58627 15005 ft 305 kts 178°
2026-05-01 11:56 37.19203 28.59131 14823 ft 306 kts 172°
2026-05-01 11:56 37.17132 28.59794 14637 ft 308 kts 168°
2026-05-01 11:56 37.15150 28.60825 14457 ft 313 kts 152°
2026-05-01 11:57 37.13502 28.62604 14284 ft 322 kts 128°
2026-05-01 11:57 37.12536 28.65154 14106 ft 326 kts 102°
2026-05-01 11:57 37.12370 28.67960 14003 ft 324 kts 85°
2026-05-01 11:57 37.12652 28.70742 13757 ft 324 kts 79°
2026-05-01 11:58 37.13057 28.73521 13442 ft 316 kts 78°
2026-05-01 11:58 37.13467 28.76168 13111 ft 307 kts 78°
2026-05-01 11:58 37.14236 28.81313 12328 ft 296 kts 78°
2026-05-01 11:59 37.14585 28.83837 11987 ft 292 kts 81°
2026-05-01 11:59 37.14709 28.86342 11606 ft 290 kts 96°
2026-05-01 11:59 37.14285 28.88806 11251 ft 287 kts 111°
2026-05-01 12:00 37.11688 28.91924 10759 ft 257 kts 173°
2026-05-01 12:00 37.09932 28.92070 10593 ft 250 kts 195°
2026-05-01 12:00 37.06635 28.90903 9829 ft 247 kts 202°
2026-05-01 12:01 37.04969 28.90310 9358 ft 247 kts 198°
2026-05-01 12:01 37.03345 28.89767 8994 ft 242 kts 202°
2026-05-01 12:01 37.01765 28.89070 8632 ft 239 kts 198°
2026-05-01 12:01 37.00117 28.88774 8289 ft 238 kts 189°
2026-05-01 12:02 36.98488 28.88495 7865 ft 235 kts 195°
2026-05-01 12:02 36.96926 28.88010 7627 ft 226 kts 199°
2026-05-01 12:02 36.95420 28.87466 7354 ft 223 kts 199°
2026-05-01 12:02 36.93936 28.86947 7060 ft 222 kts 198°
2026-05-01 12:03 36.92451 28.86443 6767 ft 219 kts 198°
2026-05-01 12:03 36.90976 28.85942 6340 ft 224 kts 198°
2026-05-01 12:03 36.89432 28.85411 5655 ft 239 kts 197°
2026-05-01 12:03 36.87774 28.84854 4766 ft 259 kts 197°
2026-05-01 12:04 36.86018 28.84263 4334 ft 256 kts 197°
2026-05-01 12:04 36.84326 28.83683 4040 ft 247 kts 197°
2026-05-01 12:04 36.82702 28.83124 3624 ft 239 kts 197°
2026-05-01 12:04 36.81156 28.82599 3003 ft 228 kts 197°
2026-05-01 12:05 36.79636 28.82084 2258 ft 223 kts 196°
2026-05-01 12:05 36.76842 28.81130 1383 ft 191 kts 196°
2026-05-01 12:05 36.75589 28.80699 897 ft 182 kts 197°
2026-05-01 12:06 36.74427 28.80309 462 ft 163 kts 196°
2026-05-01 12:06 36.73374 28.79950 198 ft 149 kts 195°
2026-05-01 12:06 36.72407 28.79618 28 ft 137 kts 195°
2026-05-01 12:06 36.71656 28.79364 22 ft 81 kts 194°
2026-05-01 12:07 36.71259 28.79230 21 ft 43 kts 196°
2026-05-01 12:07 36.71014 28.79145 19 ft 34 kts 194°
2026-05-01 12:07 36.70882 28.79101 18 ft 10 kts 194°
2026-05-01 12:07 36.70823 28.79082 17 ft 7 kts 195°
2026-05-01 12:08 36.70793 28.79069 17 ft 2 kts 206°
2026-05-01 12:08 36.70775 28.79058 16 ft 4 kts 207°
2026-05-01 12:08 36.70753 28.79043 16 ft 4 kts 208°
2026-05-01 12:08 36.70691 28.78998 16 ft 12 kts 213°
2026-05-01 12:09 36.70636 28.78945 16 ft 8 kts 223°
2026-05-01 12:09 36.70605 28.78908 15 ft 4 kts 225°
2026-05-01 12:09 36.70591 28.78891 16 ft 1 kts 225°
2026-05-01 12:09 36.70576 28.78863 16 ft 3 kts 250°
2026-05-01 12:10 36.70574 28.78842 16 ft 1 kts 272°
2026-05-01 12:10 36.70593 28.78803 16 ft 3 kts 326°
2026-05-01 12:10 36.70618 28.78798 16 ft 7 kts
2026-05-01 12:11 36.70781 28.78853 17 ft 23 kts 15°
2026-05-01 12:11 36.70960 28.78914 18 ft 25 kts 15°
2026-05-01 12:11 36.71120 28.78968 20 ft 21 kts 15°
2026-05-01 12:12 36.71234 28.79008 20 ft 13 kts 15°
2026-05-01 12:12 36.71289 28.79026 21 ft 4 kts 13°
2026-05-01 12:12 36.71311 28.79023 21 ft 2 kts 339°
2026-05-01 12:12 36.71326 28.79005 21 ft 2 kts 302°
2026-05-01 12:13 36.71331 28.78991 21 ft 2 kts 285°
2026-05-01 12:13 36.71347 28.78913 22 ft 10 kts 285°
2026-05-01 12:13 36.71357 28.78872 22 ft 2 kts 294°
2026-05-01 12:13 36.71363 28.78860 22 ft 1 kts 307°
2026-05-01 12:14 36.71379 28.78848 22 ft 2 kts 343°
2026-05-01 12:14 36.71407 28.78853 22 ft 7 kts 15°
2026-05-01 12:14 36.71484 28.78879 22 ft 14 kts 15°
2026-05-01 12:14 36.71573 28.78910 23 ft 11 kts 15°
2026-05-01 12:15 36.71632 28.78930 24 ft 7 kts 15°
2026-05-01 12:15 36.71685 28.78948 24 ft 13 kts 15°
2026-05-01 12:15 36.71817 28.78994 26 ft 18 kts 15°
2026-05-01 12:15 36.71917 28.79028 27 ft 11 kts 15°
2026-05-01 12:16 36.71975 28.79047 28 ft 4 kts 15°
2026-05-01 12:16 36.71996 28.79052 28 ft 2 kts 355°
2026-05-01 12:16 36.72006 28.79048 28 ft 1 kts 335°
2026-05-01 12:16 36.72019 28.79030 28 ft 1 kts 298°
2026-05-01 12:17 36.72026 28.79002 29 ft 6 kts 285°
2026-05-01 12:17 36.72033 28.78968 29 ft 1 kts 285°
2026-05-01 12:17 36.72035 28.78959 29 ft 0 kts 285°
2026-05-01 12:17 36.72036 28.78956 29 ft 0 kts 285°
2026-05-01 12:18 36.72036 28.78955 29 ft 0 kts 285°